GW2630 Weather Reports


time (UTC)temp
C
wind
direction
speed
KPH
gust
KPH
rain 1hr
cm
rain 24hr
cm
rain mn
cm
humidity
%
barometer
mb
20260504175832 21 187 1.6 1.6 0.00 0.00 0.00 36 1011.8
20260504175328 22 217 4.8 6.4 0.00 0.00 0.00 37 1011.9
20260504174827 21 62 6.4 11.3 0.00 0.00 0.00 35 1012.0
20260504174324 21 226 4.8 4.8 0.00 0.00 0.00 36 1012.1
20260504173821 21 188 3.2 4.8 0.00 0.00 0.00 41 1012.2
20260504173317 21 164 4.8 6.4 0.00 0.00 0.00 37 1012.3
20260504172814 21 219 3.2 9.7 0.00 0.00 0.00 37 1012.2
20260504172311 21 227 1.6 4.8 0.00 0.00 0.00 40 1012.3
20260504171807 21 344 1.6 3.2 0.00 0.00 0.00 36 1012.3
20260504171304 21 207 3.2 3.2 0.00 0.00 0.00 39 1012.3
20260504170801 21 180 1.6 3.2 0.00 0.00 0.00 37 1012.5
20260504170258 21 205 9.7 11.3 0.00 0.00 0.00 41 1012.5
20260504160216 20 179 3.2 3.2 0.00 0.00 0.00 38 1013.6
20260504151144 19 210 4.8 6.4 0.00 0.00 0.00 44 1013.9
20260504150642 18 222 4.8 6.4 0.00 0.00 0.00 47 1013.8
20260504150138 18 180 3.2 4.8 0.00 0.00 0.00 45 1013.7
20260504141107 17 188 6.4 9.7 0.00 0.00 0.00 53 1014.1
20260504140604 17 251 3.2 4.8 0.00 0.00 0.00 54 1014.1
20260504130527 15 162 1.6 1.6 0.00 0.00 0.00 57 1014.7
20260504110415 10 178 1.6 1.6 0.00 0.00 0.00 76 1015.7
20260504100332 8 196 0.0 0.0 0.00 0.00 0.00 76 1015.6
20260504081726 7 191 0.0 0.0 0.00 0.00 0.00 72 1015.4
20260504081222 7 195 0.0 0.0 0.00 0.00 0.00 71 1015.4
20260504080719 7 180 1.6 1.6 0.00 0.00 0.00 72 1015.5
20260504080215 7 186 0.0 0.0 0.00 0.00 0.00 72 1015.2
20260504070143 7 192 0.0 0.0 0.00 0.00 0.00 70 1015.0
20260504060103 7 190 0.0 0.0 0.00 0.00 0.00 68 1015.1
20260504050531 8 189 0.0 0.0 0.00 0.00 0.00 62 1014.6
20260504045525 8 192 0.0 0.0 0.00 0.00 0.00 60 1014.7
20260504045021 8 192 0.0 0.0 0.00 0.00 0.00 60 1014.5
20260504044518 8 191 0.0 0.0 0.00 0.00 0.00 61 1014.8
20260504044015 8 191 0.0 0.0 0.00 0.00 0.00 60 1014.7
20260504043512 8 185 0.0 0.0 0.00 0.00 0.00 60 1014.6
20260504043010 8 183 0.0 0.0 0.00 0.00 0.00 60 1014.6
20260504042506 8 187 0.0 0.0 0.00 0.00 0.00 60 1014.5
20260504042003 8 181 0.0 0.0 0.00 0.00 0.00 60 1014.4
20260504041459 8 189 0.0 0.0 0.00 0.00 0.00 60 1014.4
20260504040955 8 188 0.0 0.0 0.00 0.00 0.00 60 1014.3
20260504040453 8 185 0.0 0.0 0.00 0.00 0.00 60 1014.3
20260504035949 8 187 0.0 0.0 0.00 0.00 0.00 59 1014.5
20260504035447 8 188 0.0 0.0 0.00 0.00 0.00 59 1014.2
20260504034943 8 186 0.0 0.0 0.00 0.00 0.00 60 1014.2
20260504034440 8 186 0.0 0.0 0.00 0.00 0.00 59 1014.2
20260504033937 8 186 0.0 0.0 0.00 0.00 0.00 57 1014.1
20260504033435 9 191 0.0 0.0 0.00 0.00 0.00 56 1014.0
20260504032932 9 185 0.0 0.0 0.00 0.00 0.00 56 1013.9
20260504032429 9 191 0.0 0.0 0.00 0.00 0.00 56 1013.7
20260504031925 9 186 0.0 0.0 0.00 0.00 0.00 56 1013.8
20260504031422 9 188 0.0 0.0 0.00 0.00 0.00 55 1013.8
20260504030919 10 188 0.0 0.0 0.00 0.00 0.00 55 1013.9
20260504030416 10 202 1.6 1.6 0.00 0.00 0.00 54 1013.9
20260504025912 10 191 0.0 0.0 0.00 0.00 0.00 54 1013.9
20260504025409 10 178 1.6 1.6 0.00 0.00 0.00 53 1013.8
20260504024906 10 198 0.0 1.6 0.00 0.00 0.00 53 1013.9
20260504024403 10 191 1.6 3.2 0.00 0.00 0.00 53 1014.0
20260504023900 10 186 0.0 0.0 0.00 0.00 0.00 54 1014.0
20260504023356 10 193 1.6 1.6 0.00 0.00 0.00 54 1014.0
20260504022852 10 188 0.0 0.0 0.00 0.00 0.00 53 1014.0
20260504022349 10 188 0.0 0.0 0.00 0.00 0.00 52 1014.0
20260504021845 10 184 0.0 0.0 0.00 0.00 0.00 53 1013.8
20260504021343 10 187 0.0 0.0 0.00 0.00 0.00 52 1013.7
20260504020840 10 185 0.0 0.0 0.00 0.00 0.00 51 1013.7
20260504020336 10 188 0.0 1.6 0.00 0.00 0.00 51 1013.7
20260504015832 10 184 1.6 1.6 0.00 0.00 0.00 51 1014.0
20260504015329 10 191 1.6 1.6 0.00 0.00 0.00 51 1013.8
20260504014825 10 192 0.0 0.0 0.00 0.00 0.00 51 1013.4
20260504014321 10 191 0.0 0.0 0.00 0.00 0.00 51 1013.7
20260504013819 10 165 0.0 0.0 0.00 0.00 0.00 50 1013.7
20260504013317 10 187 0.0 1.6 0.00 0.00 0.00 50 1013.8
20260504012813 11 192 1.6 1.6 0.00 0.00 0.00 49 1013.7
20260504012311 10 189 0.0 0.0 0.00 0.00 0.00 49 1013.7
20260504011808 10 189 0.0 1.6 0.00 0.00 0.00 49 1013.6
20260504011304 10 190 0.0 0.0 0.00 0.00 0.00 49 1013.3
20260504010800 11 189 0.0 0.0 0.00 0.00 0.00 47 1013.2
20260504010256 11 188 0.0 0.0 0.00 0.00 0.00 48 1013.2
20260504005753 11 188 0.0 0.0 0.00 0.00 0.00 47 1013.1
20260504005250 11 188 0.0 0.0 0.00 0.00 0.00 47 1013.1
20260504004748 11 188 0.0 1.6 0.00 0.00 0.00 46 1013.1
20260504004245 11 188 0.0 1.6 0.00 0.00 0.00 45 1012.9
20260504003741 11 187 0.0 0.0 0.00 0.00 0.00 44 1012.9
20260504003238 12 188 0.0 1.6 0.00 0.00 0.00 43 1012.9
20260504002735 12 187 0.0 0.0 0.00 0.00 0.00 42 1012.8
20260504002232 12 203 0.0 0.0 0.00 0.00 0.00 41 1012.8
20260504001730 13 194 0.0 0.0 0.00 0.00 0.00 39 1012.5
20260504001226 13 186 0.0 1.6 0.00 0.00 0.00 39 1012.8
20260504000723 13 207 0.0 1.6 0.00 0.00 0.00 38 1012.6
20260504000220 13 203 1.6 1.6 0.00 0.00 0.00 37 1012.7
20260503235718 13 194 1.6 1.6 0.00 0.00 0.00 37 1012.7
20260503235215 13 256 1.6 1.6 0.00 0.00 0.00 37 1012.5
20260503234713 13 201 0.0 1.6 0.00 0.00 0.00 37 1012.3
20260503234211 13 183 0.0 0.0 0.00 0.00 0.00 37 1012.2
20260503233708 14 183 0.0 0.0 0.00 0.00 0.00 36 1012.2
20260503233203 15 189 1.6 1.6 0.00 0.00 0.00 35 1012.2
20260503232700 15 216 6.4 9.7 0.00 0.00 0.00 34 1012.0
20260503232157 15 252 1.6 1.6 0.00 0.00 0.00 34 1012.0
20260503231656 15 253 1.6 3.2 0.00 0.00 0.00 33 1012.3
20260503231151 15 292 3.2 3.2 0.00 0.00 0.00 33 1012.1
20260503230648 15 292 3.2 3.2 0.00 0.00 0.00 33 1011.9
20260503230145 15 161 6.4 9.7 0.00 0.00 0.00 33 1011.8
20260503225643 15 241 3.2 4.8 0.00 0.00 0.00 34 1012.0
20260503225143 15 336 1.6 3.2 0.00 0.00 0.00 33 1011.8
20260503224640 15 12 3.2 4.8 0.00 0.00 0.00 32 1011.9
20260503224138 15 260 1.6 3.2 0.00 0.00 0.00 33 1012.0
20260503223636 15 304 3.2 3.2 0.00 0.00 0.00 32 1012.0
20260503223132 15 298 4.8 9.7 0.00 0.00 0.00 32 1011.9
20260503222629 15 352 4.8 4.8 0.00 0.00 0.00 33 1011.9
20260503222127 15 303 4.8 6.4 0.00 0.00 0.00 32 1011.9
20260503221625 15 261 3.2 4.8 0.00 0.00 0.00 32 1011.9
20260503221122 15 238 3.2 3.2 0.00 0.00 0.00 34 1011.7
20260503220619 15 285 4.8 6.4 0.00 0.00 0.00 32 1012.0
20260503220115 15 24 4.8 6.4 0.00 0.00 0.00 33 1011.9
20260503215613 15 199 0.0 0.0 0.00 0.00 0.00 33 1012.0
20260503215109 15 16 1.6 3.2 0.00 0.00 0.00 33 1012.1
20260503214608 15 2 3.2 4.8 0.00 0.00 0.00 32 1011.9
20260503214103 15 359 4.8 9.7 0.00 0.00 0.00 31 1012.0
20260503213603 16 348 4.8 4.8 0.00 0.00 0.00 33 1012.0
20260503213058 16 146 3.2 4.8 0.00 0.00 0.00 32 1012.1
20260503212556 16 310 4.8 4.8 0.00 0.00 0.00 33 1011.9
20260503212053 16 238 6.4 6.4 0.00 0.00 0.00 32 1011.9
20260503211551 16 275 3.2 4.8 0.00 0.00 0.00 32 1011.8
20260503211045 16 253 3.2 4.8 0.00 0.00 0.00 34 1011.9
20260503210543 15 176 6.4 9.7 0.00 0.00 0.00 33 1012.1
20260503210038 15 240 4.8 6.4 0.00 0.00 0.00 32 1011.9
20260503205535 15 359 3.2 4.8 0.00 0.00 0.00 32 1011.9
20260503205032 15 249 4.8 6.4 0.00 0.00 0.00 33 1011.8
20260503204529 15 45 6.4 11.3 0.00 0.00 0.00 33 1012.0
20260503204026 15 286 3.2 3.2 0.00 0.00 0.00 32 1011.7
20260503203523 15 282 6.4 9.7 0.00 0.00 0.00 33 1012.1
20260503203020 15 275 4.8 6.4 0.00 0.00 0.00 34 1011.8
20260503202518 15 301 9.7 12.9 0.00 0.00 0.00 33 1011.9
20260503202016 15 254 9.7 9.7 0.00 0.00 0.00 33 1011.9
20260503201514 15 270 6.4 9.7 0.00 0.00 0.00 33 1012.3
20260503201011 15 279 4.8 6.4 0.00 0.00 0.00 33 1012.2
20260503200507 15 257 3.2 4.8 0.00 0.00 0.00 34 1012.3
20260503200003 15 105 4.8 6.4 0.00 0.00 0.00 33 1012.0
20260503195501 15 294 4.8 4.8 0.00 0.00 0.00 34 1012.0
20260503194957 15 7 4.8 6.4 0.00 0.00 0.00 32 1012.0
20260503194455 15 231 4.8 9.7 0.00 0.00 0.00 34 1012.1
20260503193949 15 204 4.8 6.4 0.00 0.00 0.00 34 1011.9
20260503193446 15 311 6.4 6.4 0.00 0.00 0.00 34 1012.1
20260503192941 15 337 11.3 14.5 0.00 0.00 0.00 33 1012.5
20260503192438 15 217 6.4 9.7 0.00 0.00 0.00 33 1012.2
20260503191933 15 104 3.2 4.8 0.00 0.00 0.00 33 1012.6
20260503191431 15 221 6.4 6.4 0.00 0.00 0.00 33 1012.4
20260503190927 14 317 6.4 9.7 0.00 0.00 0.00 33 1012.6
20260503190425 14 316 4.8 4.8 0.00 0.00 0.00 32 1012.6
20260503185922 14 322 6.4 6.4 0.00 0.00 0.00 35 1012.8
20260503185418 14 333 16.1 20.9 0.00 0.00 0.00 34 1012.8
20260503184917 14 220 4.8 6.4 0.00 0.00 0.00 35 1012.9
20260503184414 15 177 4.8 11.3 0.00 0.00 0.00 34 1012.9
20260503183910 14 269 6.4 6.4 0.00 0.00 0.00 35 1012.8
20260503183407 13 327 6.4 6.4 0.00 0.00 0.00 35 1012.9
20260503182904 13 352 11.3 20.9 0.00 0.00 0.00 35 1013.0
20260503182403 13 244 3.2 3.2 0.00 0.00 0.00 36 1013.1
20260503181900 13 331 9.7 14.5 0.00 0.00 0.00 36 1013.0
20260503181357 13 333 9.7 12.9 0.00 0.00 0.00 38 1013.1
20260503180853 13 232 3.2 4.8 0.00 0.00 0.00 39 1013.0
20260503180351 13 333 6.4 9.7 0.00 0.00 0.00 40 1013.3